When you browse on this site, cookies collect data to enhance your experience and personalize the content and advertising you see.
Visit our Privacy Policy to learn more. By continuing to use the site, you agree to this use of cookies and data.
  • In Austria
  • List of Countries
  • For 7 days
  • Water Temperature
  • Satellite Maps
  • Weather Map
  • News
  • Weather Widgets
  • user-avatar
    Login

    Hourly Weather Rosoman

    Today, 19 February, Tuesday

    Time Temperature Precipitation Wind Pressure Humidity
    00:00 +8°C° 0 mm 1 mps 741 mmHg 58%
    01:00 +8°C° 0 mm 1 mps 741 mmHg 60%
    02:00 +8°C° 0 mm 1 mps 741 mmHg 62%
    03:00 +7°C° 0 mm 1 mps 741 mmHg 63%
    04:00 +7°C° 0 mm 1 mps 741 mmHg 65%
    05:00 +7°C° 0 mm 1 mps 741 mmHg 65%
    06:00 +7°C° 0 mm 1 mps 741 mmHg 66%
    07:00 +7°C° 0 mm 1 mps 741 mmHg 66%
    08:00 +9°C° 0 mm 1 mps 741 mmHg 59%
    09:00 +10°C° 0 mm 0 mps 741 mmHg 53%
    10:00 +12°C° 0 mm 0 mps 740 mmHg 46%
    11:00 +14°C° 0 mm 1 mps 740 mmHg 44%
    12:00 +15°C° 0 mm 1 mps 740 mmHg 41%
    13:00 +16°C° 0 mm 1 mps 739 mmHg 38%
    14:00 +16°C° 0 mm 1 mps 739 mmHg 39%
    15:00 +16°C° 0 mm 1 mps 739 mmHg 40%
    16:00 +16°C° 0 mm 1 mps 739 mmHg 40%
    17:00 +14°C° 0 mm 1 mps 739 mmHg 46%
    18:00 +13°C° 0 mm 1 mps 739 mmHg 52%
    19:00 +11°C° 0 mm 1 mps 739 mmHg 58%
    20:00 +10°C° 0 mm 1 mps 740 mmHg 61%
    21:00 +10°C° 0 mm 1 mps 740 mmHg 63%
    22:00 +9°C° 0 mm 1 mps 740 mmHg 65%
    23:00 +9°C° 0 mm 1 mps 740 mmHg 67%

    Tomorrow, 20 February, Wednesday

    Time Temperature Precipitation Wind Pressure Humidity
    00:00 +8°C° 0 mm 1 mps 740 mmHg 68%
    01:00 +7°C° 0 mm 0 mps 740 mmHg 69%
    02:00 +6°C° 0 mm 0 mps 740 mmHg 70%
    03:00 +7°C° 0 mm 1 mps 740 mmHg 71%
    04:00 +7°C° 0 mm 1 mps 739 mmHg 72%
    05:00 +7°C° 0 mm 1 mps 739 mmHg 72%
    06:00 +6°C° 0 mm 1 mps 740 mmHg 72%
    07:00 +6°C° 0 mm 1 mps 740 mmHg 72%
    08:00 +8°C° 0 mm 1 mps 740 mmHg 65%
    09:00 +10°C° 0 mm 1 mps 740 mmHg 57%
    10:00 +12°C° 0 mm 1 mps 740 mmHg 50%
    11:00 +13°C° 0 mm 2 mps 740 mmHg 45%
    12:00 +14°C° 0 mm 2 mps 739 mmHg 40%
    13:00 +14°C° 0 mm 3 mps 739 mmHg 35%
    14:00 +14°C° 0 mm 3 mps 739 mmHg 36%
    15:00 +14°C° 0 mm 3 mps 739 mmHg 38%
    16:00 +13°C° 0 mm 3 mps 739 mmHg 39%
    17:00 +12°C° 0 mm 3 mps 740 mmHg 45%
    18:00 +10°C° 0 mm 2 mps 740 mmHg 51%
    19:00 +10°C° 0 mm 1 mps 741 mmHg 57%
    20:00 +9°C° 0 mm 1 mps 741 mmHg 59%
    21:00 +9°C° 0 mm 1 mps 741 mmHg 62%
    22:00 +8°C° 0 mm 1 mps 742 mmHg 65%
    23:00 +8°C° 0 mm 1 mps 742 mmHg 68%

    Day after tomorrow, 21 February, Thursday

    Time Temperature Precipitation Wind Pressure Humidity
    00:00 +7°C° 0 mm 1 mps 742 mmHg 70%
    01:00 +7°C° 0 mm 1 mps 742 mmHg 73%
    02:00 +6°C° 0 mm 1 mps 742 mmHg 74%
    03:00 +6°C° 0 mm 1 mps 742 mmHg 76%
    04:00 +6°C° 0 mm 1 mps 742 mmHg 77%
    05:00 +6°C° 0 mm 1 mps 743 mmHg 77%
    06:00 +6°C° 0 mm 1 mps 743 mmHg 78%
    07:00 +6°C° 0 mm 1 mps 743 mmHg 78%
    08:00 +6°C° 0 mm 2 mps 743 mmHg 69%
    09:00 +8°C° 0 mm 2 mps 743 mmHg 60%
    10:00 +10°C° 0 mm 3 mps 743 mmHg 51%
    11:00 +11°C° 0 mm 3 mps 743 mmHg 48%
    12:00 +12°C° 0 mm 3 mps 743 mmHg 45%
    13:00 +13°C° 0 mm 3 mps 743 mmHg 42%
    14:00 +12°C° 0 mm 3 mps 742 mmHg 42%
    15:00 +12°C° 0 mm 3 mps 742 mmHg 43%
    16:00 +12°C° 0 mm 3 mps 742 mmHg 43%
    17:00 +12°C° 0 mm 2 mps 742 mmHg 48%
    18:00 +9°C° 0 mm 2 mps 743 mmHg 53%
    19:00 +9°C° 0 mm 1 mps 743 mmHg 58%
    20:00 +8°C° 0 mm 1 mps 743 mmHg 60%
    21:00 +8°C° 0 mm 1 mps 743 mmHg 61%
    22:00 +7°C° 0 mm 1 mps 743 mmHg 62%
    23:00 +7°C° 0 mm 1 mps 743 mmHg 64%

    22 February, Friday

    Time Temperature Precipitation Wind Pressure Humidity
    00:00 +7°C° 0 mm 1 mps 743 mmHg 66%
    01:00 +6°C° 0 mm 1 mps 743 mmHg 68%
    02:00 +6°C° 0 mm 1 mps 742 mmHg 69%
    03:00 +6°C° 0 mm 1 mps 742 mmHg 70%
    04:00 +6°C° 0 mm 1 mps 741 mmHg 71%
    05:00 +6°C° 0 mm 1 mps 741 mmHg 72%
    06:00 +6°C° 0 mm 1 mps 741 mmHg 72%
    07:00 +6°C° 0 mm 1 mps 741 mmHg 72%
    08:00 +8°C° 0 mm 1 mps 740 mmHg 68%
    09:00 +9°C° 0 mm 1 mps 740 mmHg 63%
    10:00 +9°C° 0 mm 2 mps 740 mmHg 58%
    11:00 +10°C° 0 mm 2 mps 739 mmHg 55%
    12:00 +11°C° 0 mm 3 mps 738 mmHg 53%
    13:00 +12°C° 0 mm 4 mps 738 mmHg 50%
    14:00 +12°C° 0.1 mm 4 mps 737 mmHg 52%
    15:00 +11°C° 0.1 mm 4 mps 737 mmHg 55%
    16:00 +11°C° 0.1 mm 4 mps 737 mmHg 58%
    17:00 +10°C° 0.1 mm 3 mps 737 mmHg 64%
    18:00 +9°C° 0.1 mm 3 mps 737 mmHg 70%
    19:00 +8°C° 0.1 mm 2 mps 737 mmHg 76%
    20:00 +7°C° 0 mm 2 mps 737 mmHg 79%
    21:00 +7°C° 0 mm 2 mps 737 mmHg 82%
    22:00 +6°C° 0 mm 2 mps 737 mmHg 85%
    23:00 +5°C° 0 mm 3 mps 737 mmHg 81%

    23 February, Saturday

    Time Temperature Precipitation Wind Pressure Humidity
    00:00 +5°C° 0 mm 5 mps 737 mmHg 77%
    01:00 +4°C° 0 mm 6 mps 738 mmHg 73%
    02:00 +2°C° 0 mm 6 mps 738 mmHg 70%
    03:00 +1°C° 0 mm 6 mps 738 mmHg 67%
    04:00 -2°C° 0 mm 6 mps 739 mmHg 64%
    05:00 -2°C° 0 mm 6 mps 739 mmHg 63%
    06:00 -2°C° 0 mm 6 mps 740 mmHg 62%
    07:00 -3°C° 0 mm 6 mps 740 mmHg 61%
    08:00 -2°C° 0 mm 7 mps 741 mmHg 57%
    09:00 -2°C° 0 mm 7 mps 741 mmHg 52%
    10:00 -1°C° 0 mm 8 mps 742 mmHg 48%
    11:00 -1°C° 0 mm 8 mps 742 mmHg 46%
    12:00 0°C° 0 mm 8 mps 742 mmHg 44%
    13:00 0°C° 0 mm 8 mps 742 mmHg 42%
    14:00 -1°C° 0 mm 7 mps 742 mmHg 41%
    15:00 -1°C° 0 mm 6 mps 742 mmHg 40%
    16:00 -2°C° 0 mm 6 mps 742 mmHg 39%
    17:00 -2°C° 0 mm 5 mps 742 mmHg 41%
    18:00 -3°C° 0 mm 4 mps 743 mmHg 44%
    19:00 -4°C° 0 mm 4 mps 743 mmHg 46%
    20:00 -5°C° 0 mm 4 mps 744 mmHg 46%
    21:00 -5°C° 0 mm 4 mps 744 mmHg 45%
    22:00 -5°C° 0 mm 4 mps 744 mmHg 45%
    23:00 -6°C° 0 mm 3 mps 744 mmHg 45%

    24 February, Sunday

    Time Temperature Precipitation Wind Pressure Humidity
    00:00 -6°C° 0 mm 3 mps 744 mmHg 44%
    01:00 -6°C° 0 mm 3 mps 744 mmHg 44%
    02:00 -6°C° 0 mm 3 mps 744 mmHg 45%
    03:00 -6°C° 0 mm 3 mps 744 mmHg 46%
    04:00 -5°C° 0 mm 2 mps 743 mmHg 47%
    05:00 -6°C° 0 mm 3 mps 744 mmHg 47%
    06:00 -6°C° 0 mm 3 mps 744 mmHg 48%
    07:00 -6°C° 0 mm 3 mps 744 mmHg 49%
    08:00 -5°C° 0 mm 4 mps 744 mmHg 44%
    09:00 -3°C° 0 mm 4 mps 744 mmHg 40%
    10:00 -2°C° 0 mm 5 mps 743 mmHg 36%
    11:00 -1°C° 0 mm 5 mps 743 mmHg 34%
    12:00 -1°C° 0 mm 6 mps 743 mmHg 32%
    13:00 -1°C° 0 mm 7 mps 742 mmHg 30%
    14:00 -1°C° 0 mm 7 mps 742 mmHg 31%
    15:00 -1°C° 0 mm 7 mps 742 mmHg 33%
    16:00 -2°C° 0 mm 7 mps 742 mmHg 34%
    17:00 -3°C° 0 mm 6 mps 742 mmHg 39%
    18:00 -4°C° 0 mm 5 mps 743 mmHg 45%
    19:00 -5°C° 0 mm 4 mps 743 mmHg 50%
    20:00 -5°C° 0 mm 4 mps 743 mmHg 51%
    21:00 -5°C° 0 mm 4 mps 743 mmHg 52%
    22:00 -5°C° 0 mm 4 mps 743 mmHg 53%
    23:00 -5°C° 0 mm 4 mps 743 mmHg 53%
    Show more